Location: Ljubljana
(46.0552°N, 14.5144°E)
Time: 22:18:02
(UTC+02:00)

ISS - Visible Passes

Search period start: 23 September 2018 00:00
Search period end: 03 October 2018 00:00
Orbit: 403 x 408 km, 51.6° (Epoch: 23 September)

Date Brightness Start Highest point End Pass type
(mag) Time Alt. Az. Time Alt. Az. Time Alt. Az.
23 Sep -2.2 19:34:54 10° S 19:37:21 20° SE 19:39:38 11° E visible
23 Sep -2.4 21:10:16 10° WSW 21:12:21 35° WSW 21:12:21 35° WSW visible
24 Sep -3.9 20:18:23 10° SW 20:21:40 70° SSE 20:22:54 35° ENE visible
24 Sep -0.4 21:55:18 10° W 21:55:36 12° WNW 21:55:36 12° WNW visible
25 Sep -3.2 19:26:43 10° SW 19:29:50 41° SE 19:32:58 10° ENE visible
25 Sep -2.6 21:03:10 10° W 21:05:59 42° NW 21:05:59 42° NW visible
26 Sep -3.4 20:11:05 10° WSW 20:14:21 62° NNW 20:16:15 23° NE visible
26 Sep -0.5 21:48:18 10° WNW 21:48:56 14° WNW 21:48:56 14° WNW visible
27 Sep -3.8 19:19:07 10° WSW 19:22:24 85° SSE 19:25:43 10° ENE visible
27 Sep -2.3 20:56:08 10° WNW 20:59:06 33° NNW 20:59:06 33° NNW visible
28 Sep -2.7 20:03:57 10° W 20:07:06 39° NNW 20:09:12 18° NE visible
28 Sep -0.6 21:41:08 10° WNW 21:41:52 15° NW 21:41:52 15° NW visible
29 Sep -3.2 19:11:48 10° W 19:15:03 53° NNW 19:18:17 10° ENE visible
29 Sep -2.2 20:49:02 10° WNW 20:51:54 29° N 20:51:54 29° N visible
30 Sep -2.4 19:56:51 10° WNW 19:59:52 31° N 20:01:54 16° NE visible
30 Sep -0.7 21:33:48 10° WNW 21:34:34 15° NW 21:34:34 15° NW visible
01 Oct -2.4 20:41:46 10° WNW 20:44:32 31° N 20:44:32 31° N visible
02 Oct -2.4 19:49:39 10° WNW 19:52:37 29° N 19:54:30 17° NE visible
02 Oct -0.8 21:26:19 10° WNW 21:27:09 16° NW 21:27:09 16° NW visible
